THAICOM 6

Last updated on Jan. 26, 2020, 4:40 a.m. UTC

1 39500U 14002A   20025.55674473 -.00000128  00000-0  00000-0 0  9996
2 39500   0.0930 114.1255 0000305  28.6082 260.4310  1.00270362 22049
UTC
Height (km)
Latitude
Longitude
Inclination
Orbital Period
UTC large
Height (km)
Speed (km/s)
/
Latitude / Longitude
Inclination (degrees)
Orbital Period (minutes)
Azimuth
Elevation
Range (km)
Doppler Factor
iOS Compass Heading
iOS Angle

Next 30 passes for location: Hong Kong

Rise time Rise Azimuth (degrees) Set time Set Azimuth (degrees) Duration Max altitude (degrees)

No matching passes for this satellites